This is the latest recevied weather packets stored in our database for station/object KJ4YLO. If no packets are shown the sender has not sent any weather packets the latest 10 day(s).
| Time | Temp. | Humidity | Pressure | Rain* | Wind** | Luminosity | Snow |
|---|---|---|---|---|---|---|---|
| 1777723823 | 12.78° C | 83% | 1013.8 hPa | 0 mm | - | 39 W/m² | - |
| 1777723217 | 12.78° C | 83% | 1013.8 hPa | 0 mm | - | 16 W/m² | - |
| 1777722914 | 12.78° C | 83% | 1013.8 hPa | 0 mm | - | 16 W/m² | - |
| 1777722610 | 12.78° C | 83% | 1013.8 hPa | 0 mm | - | 16 W/m² | - |
| 1777722307 | 12.78° C | 83% | 1014.1 hPa | 0 mm | - | 8 W/m² | - |
| 1777722004 | 12.78° C | 83% | 1013.8 hPa | 0 mm | - | 9 W/m² | - |
| 1777721701 | 12.78° C | 83% | 1013.5 hPa | 0 mm | - | 10 W/m² | - |
| 1777721400 | 12.78° C | 83% | 1013.5 hPa | 0 mm | - | 11 W/m² | - |
| 1777721097 | 12.22° C | 83% | 1013.5 hPa | 0 mm | - | 9 W/m² | - |
| 1777720794 | 12.22° C | 83% | 1013.1 hPa | 0 mm | - | 9 W/m² | - |
| 1777720491 | 12.22° C | 84% | 1013.5 hPa | 0 mm | - | 6 W/m² | - |
| 1777720189 | 12.22° C | 85% | 1013.5 hPa | 0 mm | - | 4 W/m² | - |
| 1777719886 | 12.22° C | 85% | 1012.8 hPa | 0 mm | - | 4 W/m² | - |
| 1777719583 | 12.22° C | 85% | 1012.8 hPa | 0 mm | - | 3 W/m² | - |
| 1777719281 | 12.22° C | 85% | 1012.4 hPa | 0 mm | - | 2 W/m² | - |
| 1777718979 | 12.22° C | 85% | 1012.8 hPa | 0 mm | - | 0 W/m² | - |
| 1777718676 | 12.22° C | 85% | 1012.8 hPa | 0 mm | - | 0 W/m² | - |
| 1777718373 | 12.22° C | 85% | 1013.1 hPa | 0 mm | - | 0 W/m² | - |
| 1777718071 | 12.22° C | 86% | 1013.5 hPa | 0 mm | - | 0 W/m² | - |
| 1777717767 | 12.22° C | 86% | 1013.5 hPa | 0 mm | - | 0 W/m² | - |
| 1777717464 | 12.22° C | 86% | 1013.1 hPa | 0 mm | - | 0 W/m² | - |
| 1777717161 | 12.22° C | 86% | 1013.1 hPa | 0 mm | - | 0 W/m² | - |
| 1777716860 | 12.22° C | 86% | 1012.8 hPa | 0 mm | - | 0 W/m² | - |
| 1777716557 | 12.22° C | 86% | 1012.8 hPa | 0 mm | - | 0 W/m² | - |
| 1777715651 | 12.78° C | 86% | 1012.8 hPa | 0 mm | - | 0 W/m² | - |
* Rain latest hour (hover to see other rain measurements)
** Current wind speed in m/s (hover to see current wind gust speed)